Weather Roundup
Issued by NWS

Home | Current Version | Previous Version | Graphics & Text | Print | Product List | Glossary Off
Versions: 1 2 3 4 5 6 7 8 9 10 11 12 13 14 15 16 17 18 19 20 21 22 23 24 25 26 27 28 29 30 31 32 33 34 35 36 37 38 39 40 41 42 43 44 45 46 47 48 49 50

000
NZUS93 KARX 261759
HRRWXR

CURRENT HOURLY OBSERVATIONS ACROSS
MUCH OF THE UPPER MISSISSIPPI VALLEY
NATIONAL WEATHER SERVICE LA CROSSE WI
100 PM CDT TUE JUL 26 2016


...SOUTHEAST MINNESOTA...


CITY           SKY/WX    TMP DP  RH WIND       PRES   REMARKS
ROCHESTER      MOSUNNY   83  69  62 W5        30.09F
ROCHESTER/MAYO FAIR      84  64  51 SW3       30.08F
WINONA         MOSUNNY   86  68  54 W3        30.05F
AUSTIN         MOSUNNY   81  66  61 CALM      30.09F
ALBERT LEA     SUNNY     82  66  57 SW3       30.09S
DODGE CENTER   SUNNY     84  66  54 SW7       30.09F
PRESTON        SUNNY     82  66  59 CALM      30.10F
OWATONNA       SUNNY     84  64  51 SW3       30.08S
FARIBAULT      SUNNY     84  66  54 SW8       30.07F
$$

...ELSEWHERE IN MINNESOTA...


CITY           SKY/WX    TMP DP  RH WIND       PRES   REMARKS
MINNEAPOLIS    MOSUNNY   88  63  43 SW15G21   30.03F
INTNL FALLS    CLOUDY    83  64  52 W6        29.96F
DULUTH         CLOUDY    80  65  59 W14       29.97R
RED WING       SUNNY     88  61  40 W9        30.03F
REDWOOD FALLS  SUNNY     86  63  45 S5        30.03F
MANKATO        SUNNY     84  66  54 W6        30.06F
WORTHINGTON    SUNNY     83  66  56 S12       30.08F
FAIRMONT       SUNNY     82  50  32 W7        30.07S
$$

...SOUTHWEST WISCONSIN...


CITY           SKY/WX    TMP DP  RH WIND       PRES   REMARKS
LA CROSSE      SUNNY     87  66  49 CALM      30.05F
PRAIRIE DU CHI SUNNY     83  60  44 CALM      30.07F
BOSCOBEL       SUNNY     85  63  47 CALM      30.07F
LONE ROCK      NOT AVBL
PLATTEVILLE    PTSUNNY   82  64  55 CALM      30.09S
FORT MC COY    SUNNY     85  64  50 CALM      30.07F
MAUSTON-NEW LI PTCLDY    81  68  64 CALM      30.06F
VIROQUA        FAIR      82  62  50 CALM      30.10F
WIS DELLS      NOT AVBL
$$

...ELSEWHERE IN WISCONSIN...


CITY           SKY/WX    TMP DP  RH WIND       PRES   REMARKS
MILWAUKEE      MOSUNNY   85  60  42 E9        30.05F
MADISON        MOSUNNY   84  62  47 S3        30.06F
GREEN BAY      MOSUNNY   84  69  60 W7        30.03F
EAU CLAIRE     NOT AVBL
BLACK RVR FLS  FAIR      85  64  49 SW8       30.06F
MEDFORD        SUNNY     81  69  66 SW9       30.06F
WAUSAU         SUNNY     85  63  47 SW12      30.03F
WIS RAPIDS     MOSUNNY   86  63  45 SW8       30.06F
MARSHFIELD     MOSUNNY   85  67  54 SW10      30.06F
RICE LAKE      SUNNY     83  64  52 SW13      30.03F
$$

...NORTHEAST IOWA...


CITY           SKY/WX    TMP DP  RH WIND       PRES   REMARKS
WATERLOO       MOSUNNY   82  64  54 CALM      30.08S
DUBUQUE        PTSUNNY   82  63  52 CALM      30.09F
DECORAH        SUNNY     82  66  57 CALM      30.08F
MASON CITY     MOSUNNY   84  66  54 VRB5      30.10F
CHARLES CITY   SUNNY     82  64  54 CALM      30.10F
OELWEIN        MOSUNNY   82  66  57 VRB3      30.10S
$$

...ELSEWHERE IN IOWA...


CITY           SKY/WX    TMP DP  RH WIND       PRES   REMARKS
DES MOINES     MOSUNNY   85  64  49 E7        30.07F
IOWA CITY      PTSUNNY   83  66  56 E6        30.09S
FORT DODGE     MOSUNNY   82  66  57 SW3       30.10F
MARSHALLTOWN   MOSUNNY   83  65  54 E5        30.09S
CEDAR RAPIDS   PTSUNNY   82  68  62 SE5       30.08S
$$

...NORTHERN ILLINOIS...


CITY           SKY/WX    TMP DP  RH WIND       PRES   REMARKS
CHICAGO-OHARE  PTSUNNY   84  61  45 NE5       30.04F
CHICAGO-MIDWAY PTSUNNY   85  63  47 VRB7      30.04F
MOLINE         MOSUNNY   86  64  47 SE8       30.05F
ROCKFORD       MOSUNNY   85  63  47 W6        30.07F
PEORIA         PTSUNNY   84  68  58 NE6       30.04F
$$

NOTE: "FAIR" INDICATES FEW OR NO CLOUDS BELOW 12,000 FEET WITH NO
SIGNIFICANT WEATHER AND/OR OBSTRUCTIONS TO VISIBILITY. WIND
SPEEDS ARE IN MILES-PER-HOUR.




USA.gov is the U.S. government's official web portal to all federal, state and local government web resources and services.